Volver al catálogo

GIOVE-B

ActivoNavegaciónMEO
NORAD 32781·PAYLOAD·🇪🇺 EU

Lanzado Apr 27, 2008 desde Baikonur Cosmodrome

Loading…

Próximos Pases (próximas 24 horas)

TLE

ActualizadoSource: Space-Track

Época: Sep 11, 2026, 15:40 UTC

1 32781U 08020A   26254.65338624 -.00000071  00000-0  00000-0 0  9996
2 32781  60.0734  35.9481 0003055 251.9264 108.0248  1.65405067111870

Sigue GIOVE-B en tiempo real con AllMySat

Download on the App Store